Theta_e
317 316 316 316 315 315 314 313 312 311 309 316 315 320 317 316 313 329 330 329 320 310 306 310 303 308 313 314 313 314 311 313 313 311 311 310 312 310 309 308 308 309 308 306 305 305 304 304 303 305 306 307 308 309 310 309 310 309 309 309 309 312 303 299 301 305 306 307 309 308 306 305 302 306 305 305 302 303 301 300 301 295 297 295 295 290 295
316 317 316 316 315 315 314 314 313 312 310 314 315 317 315 315 313 317 330 328 320 310 299 301 305 313 311 313 312 314 314 314 311 312 310 311 310 310 308 310 312 309 309 309 305 307 299 304 304 304 307 306 311 309 310 311 310 310 307 305 313 299 304 302 297 295 300 301 305 304 307 305 304 304 305 304 306 305 304 302 305 293 299 297 293 288 294
316 316 316 316 315 315 314 314 313 312 311 313 315 313 315 313 315 313 321 324 319 304 310 309 306 307 310 310 309 310 312 316 314 312 310 313 311 311 310 311 311 310 309 308 308 308 306 303 308 307 308 307 311 311 311 313 311 311 312 314 313 301 302 300 293 290 288 287 289 293 299 301 304 305 305 305 302 303 302 295 298 291 297 298 293 292 301
316 316 316 316 315 314 314 313 313 312 312 310 315 316 311 312 300 312 315 318 314 310 313 310 309 310 310 304 310 311 310 312 314 314 316 313 314 312 311 312 312 310 307 307 306 306 308 305 304 306 306 307 309 311 312 312 310 313 313 313 312 302 307 305 303 299 297 300 302 306 306 304 301 301 303 303 304 304 304 302 296 294 298 297 299 300 300
315 316 316 316 315 314 314 313 313 312 312 310 313 315 315 313 306 306 303 315 312 308 309 309 312 307 314 300 310 308 309 310 310 314 309 312 314 312 312 311 308 308 308 307 306 307 307 308 306 306 307 309 309 312 313 312 312 317 316 311 309 306 301 305 304 304 304 304 303 306 306 302 303 301 301 303 303 304 303 297 296 303 297 292 300 302 301
314 315 316 316 315 314 314 314 313 312 312 310 315 314 317 307 312 313 320 308 303 303 302 309 309 312 315 311 312 309 309 310 307 310 311 314 315 310 310 312 310 309 307 308 302 306 305 307 305 307 308 308 309 307 309 310 311 313 310 310 307 306 298 305 305 302 304 304 302 304 303 303 301 302 301 301 302 304 302 301 303 304 296 294 301 303 301
313 314 315 315 315 315 314 314 313 312 311 310 315 310 316 316 315 313 321 309 312 312 312 314 309 309 313 312 312 309 309 309 311 309 309 311 311 312 299 308 310 311 310 309 305 306 301 299 307 307 307 309 307 306 307 310 310 311 310 308 314 308 302 305 305 303 304 303 302 303 302 302 301 302 302 302 303 302 303 303 304 303 302 303 303 303 303
313 314 314 315 315 314 314 314 314 312 310 313 314 315 312 312 312 311 318 317 313 314 314 312 310 307 313 303 311 311 310 309 311 311 310 303 311 312 308 309 312 311 310 309 307 309 309 308 305 310 309 308 309 308 309 308 310 312 310 308 313 309 298 305 305 301 301 302 302 302 302 300 300 300 303 302 302 303 303 304 304 305 303 304 304 303 302
312 313 314 314 315 315 314 314 314 312 311 314 317 318 319 320 322 319 308 307 311 313 313 311 309 306 310 307 311 310 312 310 311 313 314 312 309 311 310 311 311 312 311 312 309 313 311 310 311 312 311 305 310 308 310 311 307 308 306 307 310 308 299 306 303 295 298 301 301 301 300 301 301 301 302 302 302 301 302 300 304 303 300 302 302 300 300
311 312 313 314 314 315 314 314 314 313 311 312 317 314 322 322 324 323 314 305 311 309 312 312 309 302 311 312 311 309 311 313 312 305 313 314 314 314 314 314 313 311 310 310 312 313 313 313 315 314 312 314 312 312 311 308 311 307 308 309 304 304 302 296 298 295 294 301 301 300 300 300 297 299 302 303 304 304 304 305 306 305 305 300 295 299 305
310 311 312 313 314 314 314 314 314 312 314 316 316 315 317 316 314 315 317 306 309 310 310 309 307 308 311 313 313 314 313 314 314 305 303 313 314 318 316 316 312 310 310 313 316 317 317 317 315 314 312 311 309 309 307 308 310 311 309 305 304 307 305 299 303 292 295 301 301 302 296 289 291 305 307 305 303 304 302 302 304 306 306 303 305 305 308
310 311 312 312 313 314 314 314 313 312 311 316 319 316 319 320 316 317 312 302 304 311 309 308 309 310 309 312 313 313 312 312 312 313 311 311 315 317 317 315 314 303 315 317 315 314 313 312 311 310 308 308 307 308 307 305 304 309 310 309 304 304 304 300 304 294 295 299 300 291 287 290 304 309 309 308 307 306 304 304 306 306 307 307 306 307 307
310 310 311 312 313 313 313 314 313 312 311 317 318 314 320 321 315 313 312 309 304 309 307 309 313 312 311 313 313 315 315 314 316 315 313 314 313 316 316 314 313 314 318 313 311 309 305 304 305 306 306 308 308 309 307 307 307 309 311 311 307 301 299 299 294 297 297 295 292 286 289 303 308 308 309 310 309 307 306 304 306 307 307 306 306 307 308
310 310 311 311 312 313 313 313 313 313 311 313 315 317 319 320 313 314 313 307 305 311 313 311 311 311 313 311 313 314 315 314 315 315 312 315 315 313 316 316 319 320 317 314 309 307 303 303 297 300 301 303 304 302 304 308 309 308 308 309 310 309 306 299 295 301 291 293 293 294 303 303 304 303 305 305 303 304 302 294 302 308 308 308 307 308 308
310 310 310 311 312 312 313 313 313 312 312 311 316 316 317 320 318 315 317 313 304 308 313 303 309 312 313 314 311 312 313 314 312 313 316 317 314 316 317 318 321 319 316 310 306 307 301 300 294 293 297 295 290 292 301 299 305 309 308 308 309 310 304 303 297 293 297 292 293 293 293 290 297 306 310 312 313 312 310 304 300 308 309 310 309 307 307
310 310 310 311 311 312 312 312 312 312 311 310 316 315 317 321 321 317 314 312 310 300 306 313 317 314 312 313 315 313 309 309 309 313 312 313 313 316 318 319 319 316 312 308 308 303 299 294 292 293 291 295 299 296 295 299 299 301 309 308 307 308 309 307 298 294 294 292 290 290 288 292 304 306 310 312 312 311 311 300 296 307 310 309 309 307 307
309 310 310 310 311 311 312 312 312 312 312 310 314 316 316 324 319 315 313 313 312 303 314 314 315 316 312 311 313 311 315 307 311 305 304 310 312 314 314 316 319 315 309 308 307 301 296 295 300 298 300 301 296 292 301 299 297 297 303 307 305 302 303 300 296 294 292 292 290 289 293 294 304 309 310 310 312 311 307 291 291 306 309 310 309 307 307
309 309 310 310 311 311 311 312 312 311 311 310 313 314 316 324 323 319 312 310 307 307 313 316 313 312 312 313 311 314 316 318 316 317 313 313 313 310 310 312 309 312 312 304 305 298 296 294 293 293 294 303 302 300 291 299 295 295 298 302 301 298 299 298 293 296 294 292 292 296 296 307 311 309 311 311 313 308 292 288 297 309 309 309 309 307 308
309 309 309 310 310 311 311 312 312 311 311 310 316 314 314 319 321 318 312 311 311 303 313 316 319 316 318 319 318 320 319 317 316 306 305 310 313 313 312 312 312 303 308 302 306 297 296 295 301 300 296 298 302 292 301 296 294 301 303 299 298 297 297 294 297 293 293 296 292 295 299 307 311 311 312 312 306 292 290 304 312 310 308 309 309 309 308
308 309 309 309 310 311 311 311 311 312 311 310 313 311 315 320 322 321 313 309 312 310 314 315 317 314 319 314 310 311 313 316 318 311 308 302 317 314 309 303 309 310 306 309 297 302 297 293 297 303 298 299 300 302 298 299 301 298 297 301 297 296 291 291 292 296 296 293 291 291 289 298 314 310 309 310 296 301 309 311 311 311 309 309 309 309 308
308 308 309 309 310 311 311 311 311 311 311 310 311 312 311 320 322 322 319 313 310 307 310 317 318 318 319 318 318 315 311 310 313 315 314 318 322 312 297 296 304 306 300 301 296 296 297 295 299 300 304 301 302 301 294 295 298 305 304 300 299 302 292 294 298 300 291 291 289 292 300 307 313 310 299 307 309 312 312 311 307 310 310 309 307 307 308
307 308 308 309 309 310 311 311 311 311 311 310 310 314 310 316 321 322 321 317 310 305 310 316 317 316 318 321 321 322 316 315 316 315 316 308 321 313 311 310 309 307 309 308 304 304 303 303 303 298 297 301 306 297 300 295 292 300 306 303 291 305 302 304 298 306 299 296 300 306 309 310 312 313 311 312 313 313 312 312 309 308 308 311 307 307 308
306 307 308 309 309 310 311 311 311 311 311 310 311 313 310 315 318 322 320 312 314 314 316 314 315 315 316 316 320 324 322 319 319 320 320 316 310 313 312 310 309 313 313 311 304 304 304 303 298 304 300 303 298 296 301 301 295 300 295 302 307 306 306 309 305 303 308 309 310 310 309 310 310 312 313 311 312 312 312 310 307 308 308 309 307 308 308
305 307 308 309 309 310 310 311 310 310 310 310 311 312 312 316 317 317 315 313 309 304 309 314 311 304 310 310 318 324 320 317 318 321 323 321 310 307 314 315 315 313 315 322 321 312 308 306 307 306 297 305 305 298 294 294 298 303 300 299 303 308 306 301 297 305 300 294 306 307 307 308 309 309 311 312 312 310 311 309 308 308 309 308 309 308 307
305 306 308 308 309 309 310 310 310 310 310 309 311 313 314 314 317 316 311 301 303 303 298 302 304 313 316 318 318 316 318 320 320 320 319 320 320 317 317 325 325 319 314 321 322 314 306 302 304 304 296 306 307 296 304 297 297 305 296 299 302 301 307 300 303 302 300 297 305 307 309 309 310 309 308 308 308 309 310 310 310 309 309 309 308 309 307
304 306 307 308 308 309 309 310 310 310 309 309 311 312 311 312 317 319 316 312 310 310 301 300 309 316 318 317 314 316 318 317 316 318 317 317 319 321 323 327 329 330 324 320 317 306 304 303 301 302 299 301 310 300 299 304 302 306 301 303 306 304 303 295 304 301 304 306 307 307 308 307 307 308 309 309 309 308 308 309 308 308 307 307 306 308 306
304 305 307 308 308 309 309 310 310 309 309 309 311 313 312 314 317 315 313 311 305 299 301 301 309 313 316 314 317 317 316 316 317 316 316 317 317 321 323 324 323 320 318 315 314 311 304 304 303 303 306 307 307 307 308 305 304 302 298 305 307 302 299 303 303 299 298 300 303 306 298 297 304 307 308 308 309 309 308 308 307 307 307 307 306 306 307
304 305 306 307 308 309 309 309 309 309 309 309 310 312 314 312 315 317 316 314 309 302 303 304 308 312 316 311 315 316 316 316 316 316 315 316 318 319 321 320 321 317 315 312 303 302 302 300 300 306 308 310 304 302 309 308 306 304 303 306 307 302 303 303 298 297 296 306 307 308 307 306 307 308 309 309 310 309 307 306 306 306 306 306 305 304 303
304 305 306 307 308 308 309 309 309 309 309 309 311 311 311 311 313 314 315 317 315 310 305 307 312 310 302 309 315 313 315 316 316 316 315 315 316 317 320 320 318 316 316 311 306 303 302 302 311 304 305 312 306 300 304 296 296 294 300 307 308 309 310 308 309 308 308 310 309 309 308 305 307 309 309 309 309 308 307 306 306 306 305 305 304 303 302
303 304 306 307 308 308 308 309 309 309 309 311 309 306 303 305 313 313 315 317 316 312 303 300 298 299 314 313 311 313 313 314 315 316 315 315 315 316 317 319 320 317 316 308 306 299 303 302 309 311 311 319 307 304 299 299 296 299 304 309 309 309 309 312 311 308 306 311 310 310 310 310 310 310 309 309 309 308 306 305 305 305 304 305 304 303 303
303 304 306 307 307 308 308 308 309 308 309 309 308 298 296 293 306 314 313 315 317 311 303 302 299 306 307 313 315 311 312 313 314 314 315 316 316 316 318 319 320 317 310 307 305 303 304 302 304 308 309 311 307 300 301 299 295 299 305 308 308 308 308 308 310 312 311 310 310 311 311 310 310 309 308 308 308 307 305 303 303 305 304 304 303 303 303
303 304 305 307 307 307 308 308 308 308 310 308 306 304 304 305 308 307 308 313 316 309 300 297 297 299 300 305 311 314 313 315 315 317 317 317 316 316 318 316 315 316 309 306 305 303 302 301 307 309 305 310 305 302 302 300 295 299 307 308 308 308 309 308 309 311 311 311 310 308 307 307 308 306 304 307 307 307 306 304 304 304 304 304 304 304 304
303 304 306 306 307 307 308 308 308 309 310 312 310 310 307 304 304 309 311 315 312 307 307 298 294 298 296 304 311 311 313 314 313 314 313 316 312 314 313 314 316 312 311 306 302 300 307 305 307 305 305 310 300 296 300 298 301 308 308 308 307 308 308 308 309 310 310 310 310 306 304 305 306 307 307 307 306 306 305 304 304 304 303 302 303 303 303
303 305 306 306 307 307 308 308 308 308 309 308 305 308 313 307 311 308 316 316 309 309 300 297 294 294 297 308 304 309 312 307 307 310 304 314 316 311 307 310 312 302 305 304 305 304 304 307 301 303 305 301 305 295 293 299 305 308 308 307 308 308 308 307 308 307 308 309 310 310 309 308 308 308 307 306 305 306 305 304 303 302 301 301 301 301 301
303 305 306 306 307 308 308 308 307 305 303 305 307 312 315 306 307 308 311 311 301 295 296 297 299 296 296 297 299 303 311 309 305 309 304 306 316 309 312 302 306 299 301 311 302 303 300 300 307 299 296 303 296 292 296 300 306 307 306 306 307 307 306 305 305 307 308 308 308 308 308 307 306 304 304 304 304 303 302 301 302 301 299 299 299 300 300
304 305 306 307 307 308 308 306 307 304 302 302 306 308 307 308 309 312 313 313 309 301 295 296 298 295 298 293 294 302 311 306 310 309 308 310 309 313 311 303 295 300 309 307 297 304 298 306 301 296 304 296 293 296 300 302 304 306 306 306 307 306 305 305 305 306 307 306 307 307 307 306 305 304 304 303 302 302 302 301 301 300 300 299 299 300 300
304 305 307 307 309 306 302 302 306 306 305 310 308 308 308 308 308 313 312 308 310 312 303 301 295 296 299 299 302 307 307 298 308 305 306 302 301 301 304 297 293 299 301 296 296 297 303 309 300 296 296 295 296 303 304 304 304 305 306 307 307 307 306 306 307 306 305 305 306 306 306 305 304 303 302 302 302 302 301 300 300 299 299 298 299 300 300
305 306 307 305 304 296 294 298 303 308 308 307 308 308 305 305 291 292 293 293 302 307 302 301 294 301 305 301 296 307 305 302 308 300 299 301 299 297 303 299 298 298 292 295 298 306 301 299 296 296 296 304 306 305 305 306 306 310 309 308 308 307 307 307 306 305 303 303 304 305 304 303 302 302 302 301 301 301 301 301 301 301 300 300 301 301 300
303 305 305 305 301 296 296 302 309 308 309 307 307 294 289 292 289 287 288 292 294 294 301 300 295 300 300 299 302 309 306 303 301 303 296 304 295 291 297 292 298 297 294 295 298 306 295 295 296 296 296 302 302 305 307 307 307 308 310 309 309 308 307 307 307 306 305 305 306 306 304 301 301 301 302 301 301 302 302 301 301 301 301 301 301 299 299
303 299 297 299 298 300 306 307 308 306 301 291 292 291 286 289 288 285 291 288 288 294 300 294 301 300 301 299 301 301 310 304 298 297 299 300 305 295 295 296 297 293 291 291 296 305 297 292 295 295 295 300 302 307 307 306 305 308 310 309 309 308 308 308 308 308 309 309 308 306 305 305 305 303 302 302 301 300 300 301 302 302 301 301 299 299 299
302 302 302 297 303 303 305 304 302 299 292 288 288 287 287 285 287 290 288 287 288 292 301 300 301 299 302 304 303 300 309 312 313 309 306 297 305 304 295 291 299 293 291 292 298 299 297 295 295 294 294 302 304 306 307 306 307 309 310 310 309 308 308 308 309 309 308 306 305 305 305 306 305 304 303 303 302 301 302 302 302 302 301 300 300 300 300
306 305 307 308 306 304 301 297 291 288 287 288 287 285 286 288 288 287 289 287 288 294 298 300 297 298 298 302 302 305 304 312 311 304 298 295 299 298 293 295 296 291 290 296 302 298 296 291 292 293 300 303 306 307 307 306 307 308 309 309 309 309 308 308 308 308 307 306 305 305 306 305 305 304 303 303 302 302 301 301 301 301 301 301 300 300 300
304 306 305 302 298 293 292 288 290 289 285 284 285 283 286 283 285 285 288 292 300 298 300 306 304 306 308 312 305 308 305 312 303 302 298 295 300 299 295 293 292 288 294 304 299 294 292 292 292 296 303 304 305 306 307 307 307 308 309 309 309 310 310 308 307 306 307 306 306 306 305 305 304 304 303 303 302 302 302 301 301 301 301 301 300 300 300
307 305 299 294 291 288 291 283 289 286 284 286 285 282 284 284 286 287 287 291 297 297 302 298 299 300 295 303 300 298 305 307 304 302 299 299 297 293 293 290 291 300 304 297 294 291 292 295 298 301 304 305 305 306 307 307 307 308 307 308 308 309 309 308 307 306 306 306 306 306 305 304 303 303 303 303 302 301 301 301 301 300 300 299 299 299 300
295 291 289 289 287 288 286 281 288 285 282 284 287 288 287 285 289 291 290 299 300 298 303 303 302 301 298 303 305 302 302 298 304 298 292 295 293 295 292 291 296 297 294 291 292 293 292 293 301 302 304 304 305 306 307 308 307 307 307 307 308 308 308 307 306 305 305 305 304 304 303 303 302 301 302 302 302 303 302 301 301 299 300 300 300 299 299
292 290 289 285 281 285 286 284 284 282 287 290 288 292 293 294 295 295 299 302 300 302 301 302 302 302 301 304 297 297 301 300 297 296 297 296 291 290 296 299 297 292 291 292 289 289 291 297 301 301 304 305 306 307 307 308 308 308 307 306 307 307 307 306 306 306 305 304 304 303 302 302 302 301 301 302 302 302 302 302 302 301 300 299 299 298 299
292 291 291 289 286 286 288 284 285 288 292 293 294 296 297 298 299 300 301 301 300 303 305 305 303 303 298 300 298 299 301 300 294 297 298 291 290 294 298 293 288 290 288 287 288 290 295 299 302 304 305 305 306 307 307 307 307 307 307 308 308 306 306 306 306 305 304 304 303 303 302 302 302 302 302 302 302 302 301 302 301 301 300 299 299 298 298
287 292 292 284 284 287 284 287 294 295 296 297 297 298 299 300 299 297 300 302 301 302 303 303 299 301 302 305 306 296 298 298 294 295 296 293 295 292 290 289 289 291 292 290 291 296 298 301 302 304 306 308 307 306 306 307 307 308 308 307 307 306 306 305 305 305 304 303 303 302 302 302 302 302 301 302 301 301 301 301 301 301 300 300 299 298 297
293 289 287 287 290 290 289 293 293 291 294 296 298 298 297 296 296 299 301 302 300 300 305 303 297 300 294 297 297 295 292 297 290 290 294 293 289 285 286 285 286 286 291 295 296 298 300 302 304 306 307 307 307 307 307 307 308 308 307 307 306 306 306 305 305 305 304 303 303 302 302 302 302 302 302 302 301 300 301 301 301 300 300 299 298 298 297
288 288 289 289 290 291 295 296 293 291 294 295 296 296 298 297 297 300 303 300 301 301 300 297 300 296 293 294 291 293 293 296 293 294 291 289 289 289 289 286 288 289 292 297 298 300 302 304 304 306 307 308 308 307 307 308 305 308 308 307 307 307 306 305 304 304 304 303 303 302 302 302 301 301 301 301 301 302 301 300 300 300 300 299 298 297 297
291 289 290 295 291 290 293 287 288 289 291 293 295 296 298 297 298 298 303 302 303 300 296 293 293 292 291 290 290 287 290 296 293 291 290 290 293 290 288 287 291 295 297 300 301 302 303 304 303 304 308 308 308 309 308 308 308 308 308 307 307 306 306 306 305 304 304 303 303 297 301 301 302 302 302 302 302 300 300 299 299 299 299 299 298 298 297
288 285 286 291 295 295 296 296 295 294 294 296 297 298 299 298 300 301 304 302 301 295 293 295 294 291 290 288 290 293 295 293 290 291 289 292 294 291 290 293 296 298 299 300 301 302 301 304 307 308 309 307 308 308 309 308 308 308 307 307 306 305 305 304 304 304 303 303 303 302 302 302 303 302 302 301 301 299 298 298 298 299 299 299 299 299 298
Wind_Speed
9 9 10 10 10 10 11 13 12 14 18 9 8 9 5 5 6 6 6 6 6 5 7 7 6 8 1 2 3 6 4 8 6 9 12 9 8 7 4 6 10 6 5 4 0 7 2 3 3 3 6 9 8 6 3 6 4 4 5 4 8 6 3 4 6 3 4 1 2 4 1 1 4 5 4 6 4 5 6 3 5 4 5 2 0 3 1
9 9 10 10 10 9 10 11 11 12 11 8 9 7 6 7 8 3 6 6 6 6 5 4 7 4 4 4 5 5 9 9 8 9 10 3 7 6 6 5 9 4 7 1 4 5 4 2 5 3 3 6 5 5 3 5 5 5 4 5 5 3 2 4 2 3 1 4 3 4 4 2 4 2 5 6 6 8 7 4 0 3 3 3 4 3 3
9 8 9 10 9 8 9 10 10 10 10 9 6 5 6 7 5 8 4 6 5 8 7 5 6 7 8 4 5 4 9 10 7 9 4 7 7 6 6 8 4 4 7 4 3 7 1 5 4 2 7 6 3 5 4 5 8 7 6 5 4 3 4 4 3 3 1 0 3 3 5 5 4 6 3 6 8 11 5 3 3 2 7 6 1 6 6
9 8 9 10 9 8 8 10 9 10 10 12 6 6 6 3 3 3 6 5 6 8 9 8 6 3 2 2 3 4 7 7 7 7 9 9 7 5 4 7 5 5 7 4 4 7 5 3 3 5 5 6 4 5 7 6 9 6 4 4 2 2 3 1 4 5 3 3 3 3 6 4 5 2 3 7 8 9 6 4 4 4 5 5 8 5 8
11 8 9 9 8 7 7 9 10 9 10 8 6 6 5 5 4 2 3 4 7 7 7 8 7 3 7 2 5 7 9 6 7 5 3 3 1 6 5 5 6 3 5 4 3 4 6 7 6 3 5 6 7 2 8 7 6 3 2 2 2 3 4 7 2 3 3 4 3 3 1 2 1 6 8 7 7 6 5 4 4 5 5 5 6 10 7
12 9 9 8 8 7 7 9 9 9 10 10 6 6 5 4 4 5 2 3 2 4 5 9 8 6 8 3 3 9 9 8 5 7 7 7 3 5 4 7 6 4 6 3 2 2 4 1 2 5 6 8 6 5 7 7 4 7 3 5 3 3 1 8 1 1 6 8 3 5 1 3 4 4 2 6 5 6 7 2 7 6 5 5 9 10 9
13 10 9 9 9 7 7 8 9 9 11 8 6 5 4 7 7 5 6 4 7 7 10 10 9 10 5 3 6 5 7 10 6 3 5 4 6 5 2 4 5 4 7 4 4 0 1 1 3 2 2 4 3 4 3 6 3 4 5 2 3 2 1 2 3 5 3 3 5 9 4 3 7 5 1 4 4 5 6 9 9 7 7 6 7 9 9
13 11 9 9 9 7 6 9 8 9 12 10 6 7 5 5 6 6 9 7 9 8 8 8 6 8 8 4 7 7 10 11 8 8 4 2 4 7 7 6 5 4 6 6 3 4 1 0 3 3 2 5 2 3 3 3 2 5 3 1 4 3 2 6 2 4 6 1 4 3 4 5 3 6 8 3 10 11 10 9 9 8 4 5 7 9 8
14 11 9 9 9 7 7 8 8 9 10 6 4 5 5 6 4 4 6 7 5 7 8 7 7 6 6 6 6 7 14 10 2 9 5 6 6 5 6 8 6 1 1 4 2 4 4 5 4 4 3 1 3 4 4 1 4 3 3 3 3 2 3 3 3 2 3 2 5 3 3 3 7 4 6 10 7 8 6 6 6 5 5 2 1 5 6
15 13 9 9 9 8 6 7 7 8 6 5 6 6 8 7 6 5 5 6 6 8 7 8 7 5 6 6 9 8 9 5 8 2 6 6 6 2 4 8 5 5 1 3 3 3 6 4 7 5 5 1 6 1 4 1 3 3 3 2 2 3 2 1 3 3 3 3 4 6 1 2 4 5 7 5 6 4 7 8 7 6 4 5 3 5 4
15 14 11 8 9 7 6 6 6 7 6 6 7 6 7 7 7 8 5 5 6 7 8 8 9 7 8 9 9 7 7 12 11 5 2 5 6 4 3 5 5 4 4 5 7 6 9 8 6 4 5 6 5 2 2 1 3 4 3 4 1 5 4 4 5 2 5 5 2 3 1 4 3 6 6 5 2 5 5 6 5 7 6 6 6 6 5
15 14 12 9 8 8 7 6 6 6 6 7 8 8 5 6 7 6 6 4 6 7 8 7 10 7 9 8 8 5 9 7 6 11 6 5 0 7 5 8 6 4 4 6 4 5 6 6 6 7 6 7 7 6 7 4 5 3 2 1 0 4 3 5 2 1 4 8 4 2 2 2 4 3 4 3 5 7 6 5 7 8 6 7 5 6 5
13 14 13 9 8 8 7 6 6 6 6 7 8 7 6 6 6 6 6 6 5 7 7 8 8 12 10 7 9 12 13 10 12 9 3 3 5 5 6 7 7 9 7 6 5 7 7 8 8 8 9 8 8 8 9 7 6 6 3 4 1 1 2 2 1 0 3 1 2 2 2 5 5 5 4 6 8 7 8 7 7 7 6 5 7 5 7
12 14 13 11 8 7 7 7 6 6 7 6 7 7 8 5 6 6 5 4 5 6 9 8 11 14 14 12 7 8 10 10 1 1 6 6 3 6 6 7 8 10 6 6 7 7 5 5 4 6 7 6 6 5 7 6 5 5 3 1 4 6 5 1 0 3 0 2 2 3 7 6 7 5 3 2 2 5 1 1 5 1 5 5 5 5 2
12 13 14 12 9 8 7 7 7 6 7 6 7 8 8 5 3 6 7 5 5 7 7 4 6 11 15 13 12 8 6 3 3 5 4 4 5 6 6 5 9 9 9 8 6 5 4 4 4 4 5 5 3 3 6 4 5 4 4 1 3 2 7 2 2 1 0 4 3 3 3 3 6 4 8 4 5 6 3 3 5 2 5 1 3 1 4
12 12 14 13 9 8 8 7 7 7 7 5 6 7 8 10 5 5 6 6 5 4 3 3 9 11 11 11 12 6 5 5 4 4 6 7 8 6 6 7 6 8 9 8 6 4 4 3 4 3 4 5 6 5 3 6 4 4 2 3 3 1 2 4 2 1 1 2 3 1 0 2 4 6 5 5 4 5 6 1 3 3 6 2 2 2 4
13 12 14 13 9 8 8 8 8 7 6 5 6 7 7 7 6 3 6 6 5 7 11 13 7 8 7 8 10 8 4 3 9 6 3 6 9 8 8 7 5 7 10 7 6 5 4 4 5 6 5 7 6 3 5 5 5 5 5 3 4 4 3 2 2 1 2 0 3 1 1 2 5 6 6 6 6 4 3 3 3 4 4 1 2 3 4
13 13 13 13 11 8 8 8 8 7 7 6 6 7 8 6 5 4 5 6 6 7 8 9 9 6 3 5 9 6 4 6 1 4 3 8 9 10 9 7 8 9 9 5 5 4 4 4 5 4 4 4 6 6 3 5 5 4 5 5 5 3 3 2 3 3 4 3 1 4 3 4 6 5 5 7 4 2 2 1 4 6 5 7 5 8 7
13 13 13 13 11 8 8 9 8 8 7 7 6 8 10 9 6 2 4 7 6 5 6 11 7 7 7 8 6 8 5 1 10 1 1 2 6 9 9 7 6 5 7 4 6 4 4 5 6 7 3 5 3 2 3 2 3 2 4 5 4 3 1 3 1 3 3 5 1 4 5 4 4 3 5 6 3 2 1 5 4 7 8 7 6 5 5
14 13 13 13 12 9 8 9 9 8 8 7 6 7 8 9 10 7 4 7 7 8 9 9 9 8 9 9 9 7 6 7 8 5 2 4 9 9 8 5 8 4 8 5 4 4 5 5 6 4 3 5 5 4 3 4 4 3 4 2 3 3 1 3 3 2 2 1 2 3 2 1 4 6 3 3 3 4 6 5 5 7 8 5 6 6 7
14 14 13 13 12 10 9 9 9 9 9 8 7 6 8 7 8 2 3 6 7 6 8 8 6 11 11 11 11 11 9 3 2 5 4 2 9 4 6 4 8 6 5 5 5 4 4 5 7 5 2 3 5 2 4 5 5 4 6 1 1 4 3 2 5 4 2 2 1 2 3 7 3 4 0 5 7 7 7 6 6 4 4 7 7 6 7
14 14 13 12 12 10 9 9 9 10 9 9 7 6 8 9 6 4 5 4 7 6 7 13 14 12 13 13 12 10 9 9 6 5 3 1 5 8 5 8 9 7 4 6 5 5 5 4 4 3 4 4 5 4 5 4 4 6 3 1 2 4 2 3 3 5 3 2 4 6 7 7 5 7 8 8 8 7 6 4 4 2 6 5 8 8 6
14 13 13 12 12 10 9 9 10 10 10 9 8 7 8 7 4 4 4 7 7 9 10 11 11 13 13 15 15 12 10 5 2 3 5 2 4 8 7 7 8 6 5 5 7 5 5 6 4 4 5 4 5 4 6 5 1 7 3 3 4 4 6 1 2 7 10 9 9 7 7 8 8 6 7 8 7 6 6 8 8 9 10 9 8 7 7
14 13 13 13 12 11 9 9 10 10 10 11 10 7 8 8 7 7 7 6 6 5 8 9 8 6 6 10 11 12 10 9 9 3 3 1 3 3 6 4 5 9 2 4 2 3 3 6 4 4 4 4 6 4 3 4 5 8 6 6 4 4 2 1 1 8 4 3 6 8 9 8 8 7 7 7 7 8 8 9 9 9 9 8 8 7 6
14 14 13 13 12 11 9 9 10 10 10 11 9 8 8 9 8 8 7 4 3 3 4 3 5 8 11 10 4 2 5 3 5 5 7 8 8 4 5 5 5 3 3 3 1 3 1 4 5 2 4 3 2 3 5 2 4 8 3 5 6 5 4 5 5 7 3 4 10 10 8 8 7 6 7 7 9 9 9 9 9 9 8 8 7 6 7
14 14 14 12 12 11 9 9 10 10 10 11 10 8 7 8 8 10 8 4 5 5 5 5 8 10 10 9 10 10 0 0 6 7 9 9 9 7 7 5 3 2 3 1 3 1 1 2 1 3 4 2 2 3 1 3 7 4 2 6 4 9 6 2 7 4 10 12 10 10 9 7 6 7 7 7 8 9 9 9 8 8 8 7 7 6 7
13 14 14 13 12 11 9 9 10 10 10 10 9 8 8 8 8 8 7 5 5 4 4 6 8 10 4 9 8 3 4 7 7 9 9 9 10 7 5 5 3 3 2 4 2 2 1 1 1 3 5 3 5 2 4 4 5 5 3 8 9 6 4 4 6 5 5 6 10 12 6 5 8 8 9 9 9 9 9 8 8 7 8 7 8 7 6
13 13 14 13 12 10 9 8 9 10 10 9 8 7 7 7 8 7 8 8 7 6 6 7 7 8 14 13 5 6 7 6 7 8 7 8 8 7 6 5 4 4 5 2 2 3 3 4 5 3 5 5 5 4 2 6 3 2 3 8 7 5 3 5 4 4 4 11 15 11 4 7 9 10 10 10 8 8 7 8 7 7 6 5 4 4 4
13 13 14 14 14 11 9 8 9 9 10 8 5 6 5 7 7 8 8 9 6 6 6 8 9 8 5 4 1 7 8 5 3 5 6 10 10 10 7 7 6 5 5 4 2 3 4 4 2 2 3 1 2 4 5 3 3 4 4 6 8 4 4 5 8 7 8 11 15 10 5 9 12 12 11 9 9 8 8 8 8 7 6 6 5 4 4
13 13 14 14 14 12 9 8 9 9 9 6 5 2 3 5 8 8 8 7 5 5 4 4 4 3 4 7 7 5 1 3 5 7 8 7 9 8 9 7 6 7 5 3 3 4 4 3 3 3 0 2 3 2 4 4 4 7 7 10 8 8 6 7 3 3 5 13 11 7 7 14 12 11 9 9 8 8 8 8 6 7 6 5 5 5 7
12 13 14 14 12 12 9 8 9 11 11 6 4 2 2 2 2 8 11 8 6 4 3 3 6 7 9 5 1 6 7 6 7 7 9 7 8 8 7 7 6 7 4 4 5 4 4 3 3 4 3 4 2 2 4 5 4 5 12 11 9 8 8 7 5 5 10 11 9 11 13 12 11 10 10 9 9 10 10 9 9 9 6 4 6 4 5
12 12 13 13 12 10 9 8 10 14 8 9 10 5 1 1 1 3 4 7 6 5 3 4 4 4 4 5 6 5 6 1 5 2 4 4 2 4 4 6 8 6 3 4 5 4 3 4 5 6 6 2 2 3 5 5 4 4 12 8 7 8 9 9 7 9 10 10 13 13 11 11 10 10 9 10 10 10 8 8 6 6 3 2 5 4 5
11 12 13 13 12 10 8 9 12 12 8 7 9 11 7 8 6 4 3 4 6 4 2 2 4 3 3 4 5 8 6 4 2 1 1 3 3 5 2 5 1 1 3 3 4 3 4 3 4 6 4 6 2 2 5 6 5 10 14 10 9 10 10 8 9 9 10 10 11 10 11 11 10 10 12 11 10 9 9 8 8 5 4 2 5 5 3
11 12 12 12 12 10 8 9 13 14 3 1 6 10 3 2 4 12 7 2 2 3 3 3 4 4 5 2 5 6 9 6 5 9 6 2 2 0 1 3 2 1 4 3 2 2 2 3 4 4 5 3 3 3 4 6 6 14 10 11 11 12 10 10 10 10 10 11 9 8 10 10 10 12 11 11 10 8 6 6 6 6 3 3 3 4 4
10 11 12 12 11 7 7 9 7 7 7 6 5 5 2 7 5 1 5 2 5 2 2 4 2 4 6 5 7 5 9 7 6 8 4 4 5 4 2 1 2 1 4 3 1 2 3 4 6 4 4 5 4 3 5 7 11 10 10 11 13 11 11 10 11 10 10 10 9 10 11 13 15 12 11 11 9 8 7 6 5 4 1 2 2 4 5
10 11 12 11 9 5 3 7 6 5 5 4 2 6 10 8 7 4 0 3 4 3 3 3 3 6 6 7 7 3 8 8 6 6 6 6 5 3 4 2 2 4 1 3 3 5 4 6 4 4 6 5 5 5 7 8 8 11 11 12 12 11 11 11 12 12 11 11 11 13 14 14 13 12 11 10 9 8 7 7 7 5 2 2 3 4 4
10 12 12 8 4 3 4 5 3 5 2 5 8 9 9 6 6 4 3 3 4 3 4 2 4 10 10 8 5 5 7 6 8 7 7 5 4 3 5 3 3 2 1 1 3 4 6 5 4 4 5 5 5 9 8 8 9 11 12 12 11 10 10 10 12 13 14 13 14 14 13 13 12 10 10 9 9 9 7 5 6 5 3 3 3 3 5
10 13 7 5 3 2 0 3 3 6 11 10 4 4 4 4 2 2 2 1 3 4 4 5 6 6 7 11 8 7 7 6 8 6 5 4 4 2 2 2 4 3 3 3 5 6 3 5 4 5 5 7 6 8 9 7 6 7 12 12 11 11 11 12 13 14 14 13 15 14 13 12 12 11 10 11 10 9 6 6 5 4 4 4 5 4 3
9 5 6 5 4 3 2 4 10 13 7 3 3 3 2 1 2 1 1 1 1 5 5 8 9 7 8 11 8 6 8 7 9 8 5 7 3 0 1 4 2 2 3 4 7 10 3 3 4 4 5 7 9 8 7 7 8 8 12 12 11 11 11 12 14 15 13 12 13 14 12 12 13 12 10 10 9 7 7 5 5 5 4 5 5 3 1
4 5 4 3 4 2 6 9 8 6 4 3 3 2 2 1 1 2 2 2 2 4 6 11 9 9 13 13 11 9 5 7 9 8 6 5 4 4 2 2 3 2 5 5 4 8 4 5 4 4 6 9 9 9 9 8 8 10 12 13 13 12 12 12 13 11 11 11 12 12 11 11 11 10 10 10 9 9 7 5 6 4 4 6 5 1 1
4 5 6 4 4 4 4 2 4 5 2 2 1 2 2 1 2 1 1 3 3 3 7 8 8 10 10 10 11 10 6 3 4 6 6 5 5 4 5 4 3 3 4 5 3 4 4 4 5 7 6 8 9 11 11 10 9 11 12 13 13 12 13 14 14 13 13 11 12 11 11 12 11 10 9 10 9 8 8 7 6 6 4 4 6 2 0
1 1 3 8 6 4 4 4 3 2 2 1 1 2 2 1 2 1 2 5 8 3 9 10 13 14 14 16 13 11 5 5 4 4 4 5 5 4 4 3 2 3 4 3 6 3 4 5 6 6 7 10 10 10 12 11 11 13 13 14 12 12 14 15 15 14 13 12 11 11 10 11 11 10 9 9 8 8 8 6 7 6 4 4 2 2 0
11 9 5 5 3 2 0 1 0 1 2 2 2 3 2 3 4 3 3 3 4 6 6 9 9 7 6 3 7 9 5 5 5 4 4 3 4 3 4 4 3 5 3 6 5 4 6 6 6 6 7 9 10 11 14 12 12 13 13 13 12 11 14 15 15 14 13 12 12 11 10 11 11 10 10 9 9 9 8 7 6 5 3 3 3 0 1
2 2 2 2 2 1 1 3 1 1 2 2 4 7 7 5 5 4 4 7 8 10 11 13 13 14 9 10 6 0 2 6 4 3 3 3 2 4 3 4 5 3 3 4 4 7 6 4 7 7 8 8 9 11 14 13 13 13 14 14 14 14 15 15 14 14 13 12 12 11 11 11 11 11 10 9 10 8 7 8 7 5 3 3 4 2 6
4 1 1 1 2 1 1 2 1 3 6 7 4 5 7 11 10 11 9 5 7 11 11 11 11 13 9 9 5 3 2 3 2 4 2 3 4 4 4 4 4 3 4 6 4 4 4 6 7 8 9 10 10 12 14 13 14 15 15 15 16 16 16 15 15 14 13 13 14 13 12 12 11 10 10 10 8 7 8 8 9 7 6 6 3 1 2
4 4 3 3 3 2 3 2 4 6 4 4 7 10 12 11 8 10 9 8 10 11 13 12 12 11 11 8 5 5 5 4 5 4 3 3 3 5 3 1 2 6 5 5 6 9 8 7 6 9 9 11 10 14 14 14 14 14 16 16 16 17 16 16 14 14 14 14 14 13 13 12 11 10 10 10 8 8 7 5 6 3 2 2 2 1 3
2 1 2 2 4 3 2 6 8 5 3 6 8 6 8 8 9 7 8 10 12 11 11 11 9 10 6 6 5 4 5 4 4 4 4 4 4 1 3 4 5 5 6 7 7 5 6 8 7 7 9 11 11 15 14 14 15 16 16 15 16 17 17 16 16 15 15 16 15 14 13 12 11 11 10 10 9 8 7 7 7 5 4 2 1 2 2
3 1 2 4 6 5 10 6 4 5 5 6 6 7 6 6 6 9 8 9 9 12 8 8 10 8 3 7 3 7 5 4 4 3 3 3 2 3 4 4 5 5 5 6 8 7 6 6 8 8 9 9 15 15 14 14 15 17 17 17 18 18 17 17 16 16 16 16 15 13 13 12 11 11 11 10 10 9 8 7 6 6 5 3 3 3 2
2 2 5 4 4 4 4 6 7 8 7 6 6 7 8 9 9 8 5 7 10 14 7 9 5 7 3 3 1 4 5 4 3 3 4 4 4 4 4 4 5 7 5 7 7 8 8 7 7 9 9 14 14 13 14 14 15 16 17 18 17 17 17 17 16 16 16 15 13 13 12 11 11 10 10 9 9 8 9 8 8 6 5 5 3 1 2
2 3 3 4 5 6 7 7 9 10 8 7 7 9 9 10 9 7 7 7 10 3 4 4 6 1 3 4 5 4 4 4 3 4 6 8 5 3 4 6 6 5 6 8 8 7 8 9 9 8 12 14 13 13 14 14 13 14 15 16 16 16 16 17 17 17 16 14 14 13 13 12 10 10 10 9 8 7 9 8 7 6 5 5 5 3 2
1 3 4 7 10 6 9 11 11 10 10 11 11 10 10 12 11 10 7 7 3 6 4 4 3 2 3 3 2 3 4 4 5 7 7 7 5 5 8 6 6 7 8 7 8 8 8 9 10 10 13 13 12 13 14 14 15 15 15 16 16 15 15 17 17 16 15 14 13 13 13 12 10 10 9 9 9 8 9 8 7 6 7 5 2 2 6
4 6 6 7 11 11 10 9 8 9 9 9 10 10 10 12 11 10 7 6 4 10 8 3 2 2 2 6 5 2 3 4 5 5 8 6 5 6 6 7 6 7 8 8 9 9 9 9 7 12 12 12 12 13 14 14 14 15 16 16 15 16 16 16 15 15 14 13 13 13 12 12 10 9 10 10 9 9 9 8 7 6 4 4 4 5 5
Wind_Direction
294 294 297 301 304 310 314 319 333 338 340 343 353 312 269 235 273 89 194 165 193 214 248 240 226 221 42 81 235 285 247 254 222 177 170 203 161 154 197 209 242 191 199 195 88 153 118 98 163 126 130 82 54 73 46 334 48 313 59 66 37 324 283 288 280 24 112 137 84 17 341 125 274 37 26 347 40 16 18 2 16 329 7 347 153 75 99
298 296 295 297 301 304 312 315 332 333 357 349 315 293 285 310 306 278 172 172 201 229 238 233 236 113 163 174 252 195 292 311 279 195 167 231 152 200 167 251 255 181 219 287 213 121 147 129 179 144 123 99 80 111 47 304 50 11 41 357 34 295 43 301 258 272 153 131 124 133 73 211 111 127 58 330 15 23 21 314 21 282 69 25 297 127 114
299 297 292 293 294 296 306 312 325 325 331 342 327 312 327 302 271 265 168 179 190 228 222 255 295 187 165 197 202 239 257 197 252 3 302 154 189 191 175 221 171 227 168 191 230 126 300 177 70 72 99 98 120 61 87 50 76 59 36 2 342 300 317 320 355 342 276 301 20 15 330 53 67 33 6 47 358 35 330 347 17 308 37 323 348 88 92
304 296 289 289 289 291 301 309 319 318 325 337 320 294 292 268 295 244 193 179 203 245 272 298 281 22 124 174 242 252 259 245 252 197 223 200 143 124 216 226 215 192 170 204 208 137 161 191 153 181 120 126 150 120 106 62 79 65 41 334 341 307 315 328 24 41 46 11 106 166 319 50 36 39 27 18 38 22 345 326 311 14 333 24 47 91 107
317 296 290 285 285 290 295 304 315 317 317 347 328 284 248 314 274 284 272 183 218 248 218 234 240 235 169 193 191 236 232 266 208 196 340 270 101 156 213 196 207 206 173 204 182 195 175 169 177 191 141 115 99 91 86 100 93 145 198 118 257 251 248 103 172 152 212 134 192 135 289 33 11 2 34 38 26 30 358 10 27 353 323 76 19 38 57
323 303 286 280 277 281 293 299 315 312 313 326 297 291 234 247 271 327 130 292 243 211 232 230 233 203 188 339 316 225 234 224 223 141 218 227 175 176 195 263 201 203 175 191 180 146 151 351 136 131 133 124 144 174 192 137 130 239 170 115 290 300 336 91 169 72 354 352 93 176 95 19 34 16 16 16 20 20 43 313 52 360 49 65 46 56 65
326 308 286 277 276 272 286 297 305 310 306 329 305 293 308 286 313 298 16 266 262 286 339 310 239 223 161 143 254 267 236 236 213 200 192 221 175 194 146 264 208 177 159 173 167 158 155 165 157 93 199 98 166 115 105 113 138 156 62 340 11 317 252 136 166 82 263 233 10 30 360 98 235 52 341 49 114 75 46 32 35 27 55 70 76 73 64
331 313 290 275 273 270 275 293 306 306 314 297 273 253 288 337 2 331 337 302 294 297 292 266 254 237 154 163 187 200 248 241 204 204 196 216 202 162 168 200 241 157 192 160 189 152 323 113 177 156 234 135 268 113 2 60 168 111 89 41 98 298 85 332 358 188 142 357 354 234 64 287 36 54 352 53 27 39 45 41 32 332 117 65 112 114 81
335 323 295 276 269 266 274 289 304 310 328 293 252 280 268 311 319 334 319 309 289 294 253 258 251 257 177 211 185 229 223 226 319 281 199 177 205 202 176 178 234 59 164 87 208 165 181 179 207 143 190 236 167 334 156 78 99 28 124 243 142 277 91 288 172 287 103 307 244 103 55 64 68 62 64 49 30 50 42 52 31 26 21 55 49 78 63
334 329 303 276 266 262 264 283 301 303 321 290 301 300 357 348 315 264 263 283 311 286 271 251 260 245 233 209 197 214 221 98 255 279 291 180 210 157 145 165 230 139 169 186 118 108 222 200 133 152 164 31 99 122 63 289 107 149 131 65 210 175 165 129 170 216 141 96 342 83 303 90 112 78 35 52 109 108 89 72 55 23 311 77 72 89 66
331 330 313 277 264 257 256 274 290 299 302 307 322 329 344 357 334 331 307 283 281 273 283 279 260 238 239 201 232 210 233 172 207 224 205 278 165 99 167 152 211 134 164 108 79 67 74 84 102 91 91 92 96 89 127 3 58 35 93 141 281 294 254 174 163 272 113 203 76 73 235 235 90 77 67 30 40 88 68 61 49 73 69 86 86 95 73
331 329 323 287 262 257 256 262 279 284 292 294 305 292 318 354 313 293 287 276 283 279 273 271 271 261 239 217 201 220 260 189 171 232 221 217 100 155 173 170 220 139 143 92 122 104 105 105 110 115 125 122 116 131 112 79 106 185 52 320 106 249 8 287 198 188 137 96 142 181 257 109 125 104 80 336 11 87 102 109 59 28 24 73 74 75 69
330 328 326 303 266 255 252 253 260 277 287 299 299 291 315 347 306 312 305 290 284 285 259 255 272 283 265 248 205 176 225 234 185 191 305 230 192 178 194 174 188 130 150 141 123 164 163 147 134 125 115 123 119 104 93 90 78 45 18 13 284 191 201 2 87 347 106 180 104 220 113 120 142 105 100 61 76 74 82 69 60 51 28 28 67 57 66
334 328 328 313 274 254 248 245 251 257 267 284 293 291 302 317 326 312 298 302 283 283 298 287 284 304 288 229 238 219 208 214 266 237 180 233 183 200 191 197 166 131 176 133 192 176 135 147 129 146 138 124 116 98 75 84 60 99 106 198 336 321 327 93 305 344 186 201 137 73 125 152 143 138 152 222 133 160 131 142 117 67 75 60 77 94 74
335 331 327 319 280 252 242 244 241 246 255 271 284 285 292 285 282 316 308 298 290 297 297 278 308 307 317 292 222 208 209 197 80 233 146 321 245 209 173 118 124 162 137 189 174 178 149 147 157 157 159 164 156 142 170 108 108 54 19 1 269 123 344 64 296 83 317 350 104 131 178 211 173 154 98 83 86 81 106 145 142 93 96 101 114 229 94
332 332 326 321 288 251 239 236 238 236 247 266 270 278 282 290 330 295 290 292 313 297 226 317 13 327 307 312 276 223 215 183 172 222 173 207 221 170 175 144 174 143 168 197 179 169 158 157 181 178 175 184 166 135 189 134 136 109 125 271 271 357 187 278 256 199 246 213 265 200 181 51 113 112 112 91 109 129 103 261 179 122 111 151 215 69 23
328 330 327 322 298 254 238 233 233 231 233 230 267 276 275 257 219 296 302 275 240 251 306 320 307 304 308 299 295 255 238 178 186 195 167 237 192 177 151 171 128 179 181 207 173 185 151 180 200 196 186 199 164 161 163 175 131 141 142 227 228 175 204 178 227 249 147 282 246 76 83 124 128 133 141 156 110 144 209 250 128 183 125 317 97 76 45
328 327 327 323 307 262 239 231 228 226 223 221 246 278 282 332 307 300 258 272 269 278 276 283 284 283 282 289 302 314 346 315 88 81 131 223 197 191 151 146 162 200 189 221 204 181 164 183 213 212 201 97 87 140 201 163 149 187 191 185 175 201 209 205 255 274 169 251 122 96 94 101 114 115 105 112 152 185 197 272 108 217 124 76 54 60 3
329 329 328 326 313 273 241 230 227 221 217 212 246 272 272 260 255 188 304 282 269 263 285 288 311 330 320 294 284 316 73 232 287 157 150 328 236 182 158 166 192 169 203 217 224 192 166 198 225 237 182 125 183 197 110 147 175 193 144 184 166 181 140 242 269 269 236 200 347 77 92 72 114 92 103 107 190 211 75 100 128 82 68 71 47 61 26
330 330 328 325 315 280 245 229 224 219 212 209 225 257 286 307 305 278 282 283 295 283 279 292 307 308 345 326 336 1 332 75 317 274 195 174 243 200 165 174 197 190 180 232 215 187 178 196 217 245 187 155 183 185 180 167 201 177 215 71 308 115 204 210 202 216 291 299 178 176 170 194 291 126 190 129 268 99 128 142 110 125 114 106 84 46 71
331 328 324 322 316 288 248 229 221 217 212 201 208 260 279 272 264 237 239 276 294 295 281 258 320 344 318 314 320 325 325 357 270 268 257 28 290 225 190 186 174 186 180 201 204 186 196 184 221 201 290 163 124 187 210 156 196 62 1 26 56 60 279 351 57 16 308 328 13 41 63 127 183 214 138 95 67 113 120 140 134 116 90 115 100 75 42
329 327 321 320 316 295 254 230 218 217 209 198 201 245 262 279 269 221 257 245 263 254 276 309 311 290 295 291 287 288 293 287 298 341 325 28 267 237 185 188 187 193 178 187 209 198 199 224 203 210 200 112 109 213 188 168 208 139 100 183 231 40 49 11 45 40 12 62 109 112 98 96 75 76 94 95 95 87 75 47 77 138 129 122 110 95 79
326 324 322 319 317 301 262 232 218 214 205 190 193 232 250 278 290 279 264 257 245 262 269 280 281 282 273 268 266 263 257 266 334 265 308 14 288 239 217 179 200 201 194 193 213 215 186 224 207 204 204 185 163 197 169 236 88 130 174 137 66 119 62 360 91 93 87 66 88 117 115 114 103 88 91 100 98 92 94 95 92 72 64 61 84 84 75
325 323 321 320 318 306 268 232 217 210 204 189 199 223 246 266 294 313 265 243 277 297 297 265 268 272 264 271 275 221 213 235 232 278 34 273 295 273 233 241 239 182 224 68 11 328 223 201 254 156 219 183 170 205 180 198 224 174 163 143 152 98 137 182 204 132 175 134 169 132 118 117 117 107 98 98 105 101 92 84 78 83 82 77 68 73 70
322 321 319 319 316 308 281 239 216 210 203 195 208 247 282 291 285 262 278 281 257 260 279 299 267 273 266 254 342 337 241 232 113 148 225 230 239 299 328 347 332 337 191 102 179 229 281 227 201 198 204 46 233 195 172 254 178 133 196 158 138 158 156 233 141 138 261 137 141 128 130 122 128 133 134 120 109 103 94 93 89 87 85 84 85 82 71
319 318 316 314 315 309 289 246 219 210 203 191 203 219 225 252 289 312 298 306 306 298 275 274 271 266 253 237 217 243 184 231 263 248 233 242 250 288 302 292 325 8 1 57 184 254 321 324 342 192 204 143 280 303 98 77 53 105 17 44 92 120 166 213 156 147 89 105 126 131 132 145 155 149 131 122 114 108 114 114 117 115 107 97 81 59 75
316 316 315 314 312 307 291 256 221 210 202 186 197 224 233 261 276 286 293 288 305 259 234 252 270 280 261 241 247 211 223 248 249 249 248 246 256 238 240 251 205 232 254 224 171 284 231 285 243 226 223 187 179 224 98 162 180 171 162 133 135 137 232 140 175 158 159 169 159 151 152 171 160 151 132 127 122 119 116 124 122 121 118 115 112 115 112
311 313 313 313 310 304 292 257 227 208 197 185 207 219 237 251 266 284 305 299 262 288 324 313 300 319 336 309 250 222 237 229 234 240 247 257 243 247 245 218 226 226 215 224 151 217 227 218 210 51 39 95 176 134 100 48 359 237 221 168 170 209 167 171 204 211 223 176 155 170 177 150 146 136 132 131 136 131 137 126 115 101 86 74 81 86 87
308 311 312 311 310 305 289 259 226 208 183 173 203 232 249 253 266 274 276 285 281 283 282 291 291 279 266 5 66 233 225 231 259 269 236 237 228 229 228 220 218 212 219 191 222 207 214 223 165 183 186 102 215 148 168 192 208 215 251 130 155 91 106 92 63 74 45 127 148 166 189 148 138 138 139 144 142 142 127 117 111 113 109 107 93 73 56
307 309 310 308 307 305 287 255 222 194 170 172 196 199 253 244 206 237 250 265 255 261 284 303 302 292 295 222 239 271 289 215 219 238 233 225 236 224 217 210 216 222 208 198 184 216 200 211 72 52 330 273 236 158 181 205 208 218 183 134 116 121 110 81 77 355 117 128 141 141 113 121 131 137 148 136 142 149 140 128 127 131 117 109 100 82 76
302 307 307 307 303 297 281 248 205 177 166 186 174 178 188 249 182 182 208 220 231 250 270 281 278 308 301 284 98 247 243 200 211 219 224 208 232 230 231 211 216 220 198 193 206 219 206 157 148 122 104 37 2 197 201 214 235 222 140 139 139 141 128 122 113 119 121 138 133 120 123 131 136 142 139 144 130 111 101 89 72 62 58 85 90 66 62
301 304 304 303 301 293 272 235 194 176 184 197 194 193 13 344 16 321 294 221 181 225 247 272 280 271 279 254 205 212 253 169 144 66 19 349 159 354 300 227 214 219 258 210 199 215 197 134 178 160 181 157 162 244 212 231 229 183 137 143 153 141 129 128 144 138 143 137 130 130 141 143 158 155 143 132 128 127 124 120 117 121 146 108 95 95 109
297 301 301 300 299 290 262 227 189 180 195 218 324 311 255 255 276 284 179 177 189 222 205 256 262 295 273 265 146 193 188 114 63 10 315 346 18 348 354 339 292 23 336 292 195 199 158 155 160 175 139 117 177 197 235 222 247 135 150 148 152 135 134 144 147 151 146 145 149 156 158 156 160 146 135 135 135 141 144 151 129 123 109 145 148 135 102
294 298 299 296 293 280 250 209 191 187 182 202 214 232 206 130 343 10 356 223 197 229 226 242 234 239 265 272 241 170 177 200 183 186 199 172 227 170 288 325 338 23 321 275 141 88 143 182 178 128 102 183 178 192 210 226 127 144 154 148 137 133 141 149 151 159 157 150 160 158 149 157 143 125 135 142 142 149 159 127 142 144 152 159 122 95 81
292 295 294 295 284 264 231 195 178 186 200 206 245 237 101 63 74 44 30 322 187 196 214 228 258 242 234 239 247 180 184 206 201 167 169 161 199 168 5 16 203 149 269 317 117 183 183 188 175 154 182 161 184 204 205 208 157 155 146 150 139 145 148 156 161 159 156 148 163 149 154 138 132 146 149 146 147 154 146 159 126 103 95 60 48 60 52
289 293 292 287 282 242 198 179 186 188 208 208 178 94 91 95 82 44 34 270 291 291 199 218 204 238 232 238 225 174 155 214 188 155 166 142 155 120 89 55 22 295 262 209 210 186 205 189 200 195 174 174 198 195 194 223 190 163 161 152 156 157 164 164 158 158 157 159 167 146 139 142 152 150 147 155 158 157 158 142 123 126 113 113 67 57 50
281 286 284 258 181 156 194 194 164 200 245 109 121 90 58 66 31 33 48 324 232 206 283 281 222 220 222 252 243 141 174 202 178 171 153 164 162 161 144 148 200 230 352 268 234 200 200 168 202 204 199 194 194 198 212 206 230 172 166 158 161 158 162 163 160 160 152 173 156 146 152 159 156 154 159 164 158 141 137 156 136 128 114 95 70 69 55
284 282 244 199 187 177 181 217 181 134 114 122 148 84 353 24 67 15 28 29 285 255 222 222 242 246 246 246 252 144 194 202 181 185 151 163 160 163 223 175 188 171 184 220 226 216 198 164 205 219 216 205 199 189 202 206 240 162 157 159 164 163 167 163 166 162 163 162 150 159 163 167 162 161 168 156 145 149 146 116 108 120 108 102 91 77 54
278 247 226 221 233 216 199 137 132 134 115 53 29 86 3 351 75 21 234 230 230 232 224 230 231 219 245 246 241 164 219 203 203 182 168 164 138 213 253 162 172 154 220 202 203 185 173 185 209 208 230 204 199 195 185 203 214 172 159 158 166 166 170 170 168 168 172 166 164 165 171 169 164 163 163 147 150 141 129 141 127 115 109 102 98 59 12
227 225 218 209 220 98 83 112 117 89 43 54 349 90 106 320 134 193 147 192 227 236 211 223 220 215 223 239 237 203 202 239 207 186 187 166 160 172 179 226 145 190 210 205 181 161 194 183 199 210 221 212 211 178 194 198 197 163 155 160 167 167 173 168 162 167 166 158 163 166 174 162 163 163 153 154 144 142 146 142 125 112 113 92 65 42 109
225 230 222 219 101 105 99 52 35 53 63 89 63 10 109 153 227 257 169 234 235 232 209 224 184 216 220 249 264 252 164 279 266 209 196 202 157 203 162 203 129 208 204 209 139 161 203 227 200 207 212 201 215 183 186 191 182 160 160 163 167 168 172 161 163 164 166 164 166 170 168 159 162 153 153 147 147 150 140 136 133 120 115 134 147 144 228
246 300 66 76 83 83 66 39 41 86 40 347 149 157 169 127 105 219 229 214 212 223 205 200 206 202 204 209 221 240 201 207 240 225 204 191 154 201 170 164 139 218 207 174 124 186 194 218 216 218 195 200 208 182 175 186 173 168 167 166 166 170 165 161 166 166 169 167 167 162 161 157 152 148 140 134 139 132 132 134 125 128 134 121 160 197 246
103 112 118 92 81 53 301 107 18 108 149 150 162 152 172 174 194 185 209 226 241 239 210 189 225 202 193 90 294 263 228 161 219 203 225 170 127 215 205 185 167 199 207 126 165 190 203 215 211 208 195 196 206 190 172 182 170 169 164 165 168 167 162 162 168 164 171 167 160 158 151 146 141 133 135 138 131 124 122 115 121 126 145 136 98 39 96
149 141 162 131 110 356 265 180 157 123 195 209 182 184 164 190 185 184 218 198 190 219 209 187 192 197 187 175 197 309 176 178 232 221 201 112 164 185 203 205 188 194 178 209 191 210 210 214 216 200 199 197 206 187 166 175 165 164 165 171 167 162 163 166 165 166 167 159 151 143 141 139 138 139 144 138 139 143 144 132 122 109 123 169 184 179 89
156 104 87 117 139 154 140 183 162 219 209 199 204 203 173 204 190 187 205 187 210 218 202 202 191 197 195 170 171 187 217 187 162 238 149 138 179 193 206 204 178 206 211 211 199 214 216 224 195 197 205 208 210 172 165 169 165 167 167 166 163 166 168 169 170 168 160 153 147 147 147 147 144 147 146 142 146 148 142 149 150 151 173 195 157 152 89
189 185 163 148 165 204 213 204 162 217 228 194 204 206 205 210 193 200 195 215 228 221 213 195 199 192 199 174 177 165 174 188 170 215 167 167 191 199 192 182 176 214 213 220 210 213 213 208 192 196 201 213 202 159 164 166 166 165 167 166 167 170 172 173 168 162 154 151 151 153 151 153 150 152 149 144 144 136 133 131 141 166 112 94 113 59 16
185 188 238 227 215 187 202 212 200 209 201 210 229 229 227 220 214 211 190 205 237 234 225 208 200 194 185 187 169 161 183 174 191 184 166 176 190 187 150 207 207 207 208 207 214 210 206 205 204 204 195 216 168 153 166 165 167 169 168 164 166 173 172 168 162 161 155 154 155 157 154 157 155 154 146 150 145 144 149 135 124 113 103 123 116 176 184
196 181 211 215 213 177 203 220 225 232 248 251 218 219 245 245 233 220 210 210 237 249 220 197 201 182 107 312 259 174 181 171 181 182 176 186 168 211 188 209 226 212 209 208 209 204 213 197 200 205 217 180 150 162 164 167 166 168 165 166 172 172 167 165 165 163 157 158 160 159 158 161 160 156 159 158 153 157 153 141 135 141 156 182 200 225 134
218 191 201 231 222 202 207 194 199 230 222 236 241 217 210 221 234 241 233 222 231 247 206 211 213 164 152 182 212 144 195 171 167 174 168 203 188 190 175 207 195 215 206 205 210 203 207 209 202 215 184 149 159 166 165 166 168 168 168 172 172 168 168 166 166 159 157 160 162 158 162 160 157 159 159 162 155 156 148 153 152 140 162 206 203 129 275
179 215 237 242 223 225 215 201 208 222 216 220 223 224 213 220 230 236 239 249 239 260 74 77 355 346 147 171 171 184 196 164 183 182 192 204 198 181 196 219 207 200 187 186 205 204 204 213 218 204 153 158 164 168 164 166 165 167 168 168 168 167 170 165 162 158 162 163 162 162 158 156 162 160 166 163 160 164 144 145 140 166 184 193 214 189 202
242 257 245 222 231 223 191 206 204 211 212 216 217 218 215 220 217 224 226 243 221 141 178 186 197 167 140 127 146 181 193 152 195 199 199 204 184 194 207 216 188 188 201 199 203 215 223 218 220 175 154 163 162 164 163 165 164 168 166 168 169 169 164 161 161 160 162 163 161 156 157 164 164 165 159 155 165 153 137 138 151 180 202 214 176 210 262
203 215 216 215 230 242 242 232 224 221 222 222 223 220 217 228 220 228 230 244 189 190 186 154 194 166 165 181 181 170 140 171 204 192 208 213 195 202 202 201 194 185 197 206 208 205 225 227 150 134 153 155 156 158 160 158 165 166 168 169 168 164 162 164 164 161 163 163 162 161 160 162 162 159 152 162 165 161 162 165 174 192 213 219 206 208 235